Regional Weather Roundup
Issued by NWS

Home | Current Version | Previous Version | Graphics & Text | Print | Product List | Glossary On
Versions: 1 2 3 4 5 6 7 8 9 10 11 12 13 14 15 16 17 18 19 20 21 22 23 24 25 26 27 28 29 30 31 32 33 34 35 36 37 38 39 40 41 42 43 44 45 46 47 48 49 50
066
ASUS45 KTFX 241910
RWRMT
MONTANA REGIONAL WEATHER ROUNDUP
NATIONAL WEATHER SERVICE GREAT FALLS MT
1200 PM MST FRI FEB 24 2017

NOTE: "FAIR" INDICATES FEW OR NO CLOUDS BELOW 12000 FEET WITH NO
SIGNIFICANT WEATHER AND/OR OBSTRUCTIONS TO VISIBILITY.

MTZ001>007-043-242000-
WEST OF THE DIVIDE

CITY           SKY/WX    TMP DP  RH WIND       PRES   REMARKS
KALISPELL      CLOUDY    25  18  74 CALM      30.11R
MISSOULA       MOSUNNY   30  15  53 NW10      30.09S WCI  21
BUTTE          CLOUDY    22  14  71 CALM      29.94S
MULLAN PASS    CLOUDY    20  15  81 VRB3      29.96R
ANACONDA         N/A     25  16  68 N8        29.97S WCI  16
DEER LODGE       N/A     27  18  69 NE7       30.01S WCI  19
EUREKA           N/A     25  16  68 CALM      30.15S
HAMILTON         N/A     30  14  51 N6        30.05F WCI  24
LIBBY            N/A     27  18  69 CALM      30.13F
$$

MTZ008-052>055-242000-
SOUTHWEST MONTANA

CITY           SKY/WX    TMP DP  RH WIND       PRES   REMARKS
BOZEMAN        LGT SNOW  27  20  75 W6        29.99R WCI  20
DILLON         CLOUDY    24  15  68 S5        29.94S
W YELLOWSTONE  CLOUDY    18   7  62 S16       29.90R HAZE    WCI   3
ENNIS          MOSUNNY   23  16  74 S8        29.98S WCI  14
THREE FORKS      N/A     30  -8  19 CALM      29.98S
$$

MTZ009-010-012-014-046-048-049-054-242000-
EAST SLOPES AND CENTRAL MONTANA

CITY           SKY/WX    TMP DP  RH WIND       PRES   REMARKS
CUT BANK       SUNNY     26  16  65 NW12      30.02R WCI  16
GREAT FALLS    CLOUDY    28  20  71 NW6       30.01S WCI  22
MALMSTROM AFB  CLOUDY    30  22  72 W6        30.03S WCI  24
HELENA         MOSUNNY   33  14  45 CALM      29.99S
AUGUSTA          N/A     28  12  51 N7        29.97S WCI  20
BOWMANS CRNR     N/A     26  12  55 N7        29.97R WCI  18
CHOTEAU          N/A     30  16  55 VRB7      30.02S WCI  23
POWER          PTSUNNY   28  17  62 NW9       30.00S WCI  20
RAYNESFORD     FLURRIES  26  20  80 NW7       30.00R WCI  18
ULM            PTSUNNY   28  20  71 MISG      30.02R
$$

MTZ011-013-016-021-045-047-050-051-242000-
NORTH CENTRAL MONTANA

CITY           SKY/WX    TMP DP  RH WIND       PRES   REMARKS
HAVRE          LGT SNOW  26  25  96 CALM      30.06S FOG
LEWISTOWN      CLOUDY    25  19  78 SW6       29.98S WCI  18
N BAR RANCH    MIX PCPN  23  19  86 E3        29.98F
CHINOOK          N/A     30  27  86 W3        30.07S
DENTON         FLURRIES  27  23  85 NW8       29.98S WCI  18
FORT BENTON      N/A     28  21  74 MISG        N/A
GEYSER           N/A     27  17  64 W9        29.98S WCI  18
GRASS RANGE    PTSUNNY   26  22  85 CALM      29.96S
JUDITH GAP       N/A     22  15  73 SW9       29.95F WCI  12
ROY            PTSUNNY   27  23  83 MISG      29.99S
STANFORD       CLOUDY    25  18  75 CALM      29.97S
WINIFRED         N/A     25  21  84 W10       30.00S WCI  15
$$

MTZ017>020-022>027-061-062-242000-
NORTHEAST MONTANA

CITY           SKY/WX    TMP DP  RH WIND       PRES   REMARKS
GLASGOW        CLOUDY    29  23  78 S12       30.08F WCI  19
JORDAN           N/A     31  24  75 S9        30.05F WCI  23
SIDNEY         PTSUNNY   28  16  60 S12       30.14F WCI  18
WOLF POINT     CLOUDY    30  21  69 S10       30.12F WCI  21
PLENTYWOOD       N/A     27  16  63 S12       30.10F WCI  16
SCOBEY           N/A     27  17  65 SE2       30.05F
$$

MTZ028>42-056>058-242000-
SOUTHCENTRAL AND SOUTHEAST MONTANA

CITY           SKY/WX    TMP DP  RH WIND       PRES   REMARKS
BAKER          SUNNY     25  12  58 SE10      30.08F WCI  15
BILLINGS       LGT SNOW  27  24  89 N6        29.99S FOG     WCI  20
LIVINGSTON     CLOUDY    24  17  74 CALM      29.96S
MILES CITY     CLOUDY    29  19  66 S7        30.07F WCI  22
BIG TIMBER     SUNNY     25  18  74 CALM      30.00R
FORSYTH          N/A     30  21  69 E8        30.05F WCI  23
HARLOWTON      PTSUNNY   24  19  80 S3        29.97F
LAUREL           N/A     31  22  69 N1        29.98R
$$

REGIONAL REPORTS...DAKOTAS

CITY           SKY/WX    TMP DP  RH WIND       PRES   REMARKS
WILLISTON      CLOUDY    26  15  63 S8        30.14F WCI  18
MINOT          SUNNY     28  12  51 VRB5      30.13F
DICKINSON      CLOUDY    22  10  60 CALM      30.09F
BEACH            N/A    N/A N/A N/A MISG        N/A
CROSBY         PTSUNNY   28  16  59 SW10      30.14F WCI  19
TIOGA            N/A     23  16  74 W12       30.13S WCI  12
WATFORD CITY   CLOUDY    25  16  68 CALM      30.14F
BISMARCK       SUNNY     30  17  58 NW9       30.14F WCI  22
GRAND FORKS    PTSUNNY   21   9  59 N16       30.13F WCI   7
FARGO          PTSUNNY   25  16  68 N20       30.08F WCI  11
BUFFALO SD       N/A     26  11  52 SE10      30.01F WCI  16
RAPID CITY     CLOUDY    21  15  78 CALM      30.07F
$$

REGIONAL REPORTS...WYOMING/IDAHO/WASHINGTON

CITY           SKY/WX    TMP DP  RH WIND       PRES   REMARKS
GILLETTE       CLOUDY    25  19  78 S8        29.97S WCI  16
SHERIDAN       CLOUDY    27  19  72 SE21      29.97S WCI  13
BUFFALO WY     CLOUDY    24  18  77 SE10      29.93F WCI  14
CODY           CLOUDY    26  18  71 NE3       29.94S
YELLOWSTONE LA   N/A     11   7  84 VRB5      29.85S
IDAHO FALLS    LGT SNOW  19  17  92 SW25G33   30.01R FOG     WCI   1
SALMON         CLOUDY    30  18  59 E3        29.99S
BOISE            N/A     33  19  56 NW15      30.14  WCI  23
SPOKANE        PTSUNNY   28  24  85 SE5       30.15S FOG
$$

REGIONAL REPORTS...ALBERTA

CITY           SKY/WX    TMP DP  RH WIND       PRES   REMARKS
EDMONTON       FLURRIES  16   9  73 NW9       30.20S WCI   4
CALGARY        LGT SNOW  19  16  86 N15       30.07R VSB 5/8 WCI   5
LETHBRIDGE     LGT SNOW  23  21  93 W8        30.07R FOG     WCI  14
MEDICINE HAT   PTSUNNY   28  21  74 N5        30.08S
WATERTON GATE    N/A     25  14  63 NE6         N/A  WCI  18
CARDSTON         N/A     25  14  63 NW6         N/A  WCI  18
MILK RIVER       N/A     27  21  80 NW15        N/A  WCI  15
$$

REGIONAL REPORTS...SASKATCHEWAN

CITY           SKY/WX    TMP DP  RH WIND       PRES   REMARKS
SWIFT CURRENT  CLOUDY    25  21  86 NW10      30.03S WCI  15
REGINA         FLURRIES  28  18  64 W9        30.08F WCI  20
SASKATOON      CLOUDY    25  18  74 W7        30.10F WCI  17
CYPRESS HILLS    N/A     21  18  86 NW5         N/A
VAL MARIE        N/A     27  25  93 SW9         N/A  WCI  17
ROCKGLEN         N/A     25  23  93 SW10        N/A  WCI  15
$$




USA.gov is the U.S. government's official web portal to all federal, state and local government web resources and services.